This demonstration page uses our WeatherBlox Daily Observations layout. Learn more.

Left ArrowRight Arrow

38.80484, -77.04692

Hourly Observations for December 20, 2021

Temp ( °F °C ) Dew Point ( °F °C ) Humidity (%) Winds ( mph kmh ) Pressure ( in mb ) Visibility ( mi km ) Precip ( " mm )
12:52 am 00:52 Clear 32 0 22 -5.6 66 66 NNW 10 17 30.32 1027 10 16 0.00 0.00
1:52 am 01:52 Clear 31 -0.6 21 -6.1 67 67 NNW 8 13 30.32 1027 10 16 0.00 0.00
2:52 am 02:52 Clear 30 -1.1 20 -6.7 66 66 N 8 13 30.35 1028 10 16 0.00 0.00
3:52 am 03:52 Clear 29 -1.7 19 -7.2 66 66 N 8 13 30.35 1028 10 16 0.00 0.00
4:52 am 04:52 Clear 30 -1.1 19 -7.2 64 64 N 7 11 30.35 1028 10 16 0.00 0.00
5:52 am 05:52 Clear 28 -2.2 19 -7.2 69 69 N 8 13 30.37 1028 10 16 0.00 0.00
6:52 am 06:52 Clear 29 -1.7 19 -7.2 66 66 N 9 15 30.39 1029 10 16 0.00 0.00
7:52 am 07:52 Sunny 30 -1.1 19 -7.2 64 64 NE 9 15 30.40 1030 10 16 0.00 0.00
8:52 am 08:52 Sunny 32 0 20 -6.7 61 61 ENE 8 13 30.42 1030 10 16 0.00 0.00
9:52 am 09:52 Mostly Sunny 35 1.7 19 -7.2 52 52 NNE 7 11 30.44 1031 10 16 0.00 0.00
10:52 am 10:52 Mostly Sunny 37 2.8 18 -7.8 46 46 NE 8 13 30.42 1030 10 16 0.00 0.00
11:52 am 11:52 Mostly Sunny 38 3.3 17 -8.3 43 43 VRB 3 6 30.39 1029 10 16 0.00 0.00
12:52 pm 12:52 Mostly Sunny 40 4.4 14 -10 35 35 Calm 30.37 1028 10 16 0.00 0.00
1:52 pm 13:52 Mostly Sunny 40 4.4 16 -8.9 38 38 SE 5 7 30.33 1027 10 16 0.00 0.00
2:52 pm 14:52 Mostly Sunny 41 5 13 -10.6 32 32 S 7 11 30.31 1027 10 16 0.00 0.00
3:52 pm 15:52 Mostly Sunny 41 5 17 -8.3 38 38 S 6 9 30.29 1026 10 16 0.00 0.00
4:52 pm 16:52 Mostly Clear 38 3.3 16 -8.9 41 41 SSW 7 11 30.28 1026 10 16 0.00 0.00
5:52 pm 17:52 Mostly Clear 38 3.3 18 -7.8 44 44 SSW 8 13 30.29 1026 10 16 0.00 0.00
6:52 pm 18:52 Clear 36 2.2 21 -6.1 55 55 SSW 9 15 30.29 1026 10 16 0.00 0.00
7:52 pm 19:52 Clear 35 1.7 22 -5.6 59 59 SW 7 11 30.29 1026 10 16 0.00 0.00
8:52 pm 20:52 Mostly Cloudy 35 1.7 22 -5.6 59 59 SSW 6 9 30.29 1026 10 16 0.00 0.00
9:52 pm 21:52 Mostly Cloudy 33 0.6 22 -5.6 64 64 S 6 9 30.26 1025 10 16 0.00 0.00
10:52 pm 22:52 Mostly Cloudy 34 1.1 25 -3.9 70 70 S 7 11 30.24 1024 10 16 0.00 0.00
11:52 pm 23:52 Mostly Cloudy 33 0.6 23 -5 66 66 WSW 3 6 30.22 1023 10 16 0.00 0.00

Powered by AerisWeather